| time (UTC) | temp C | wind direction | speed KPH | gust KPH | rain 1hr cm | rain 24hr cm | rain mn cm | humidity % | barometer mb |
| 20260902042032 | 10 | 260 | 16.1 | 0.0 | 0.00 | 0.00 | 0.00 | 99 | |
| 20260902031728 | 11 | 230 | 9.7 | 0.0 | 0.00 | 0.00 | 0.00 | 93 | |
| 20260902021929 | 12 | 240 | 8.0 | 0.0 | 0.00 | 0.00 | 0.00 | 93 | |
| 20260902011928 | 12 | 270 | 4.8 | 0.0 | 0.00 | 0.00 | 0.00 | 93 | |
| 20260902001729 | 12 | 290 | 9.7 | 0.0 | 0.00 | 0.00 | 0.00 | 93 | |
| 20260901231913 | 12 | 260 | 12.9 | 0.0 | 0.00 | 0.00 | 0.00 | 82 | |
| 20260901222031 | 13 | 240 | 11.3 | 0.0 | 0.00 | 0.00 | 0.00 | 76 | |
| 20260901211728 | 13 | 230 | 11.3 | 0.0 | 0.00 | 0.00 | 0.00 | 76 | |
| 20260901201928 | 13 | 240 | 9.7 | 0.0 | 0.00 | 0.00 | 0.00 | 76 | |
| 20260901191928 | 12 | 220 | 8.0 | 0.0 | 0.00 | 0.00 | 0.00 | 76 | |
| 20260901181728 | 13 | 190 | 3.2 | 0.0 | 0.00 | 0.00 | 0.00 | 76 | |
| 20260901171928 | 16 | 240 | 8.0 | 0.0 | 0.00 | 0.00 | 0.00 | 67 | |
| 20260901162030 | 17 | 250 | 14.5 | 0.0 | 0.00 | 0.00 | 0.00 | 59 | |
| 20260901151728 | 17 | 230 | 16.1 | 27.4 | 0.00 | 0.00 | 0.00 | 59 | |
| 20260901141928 | 17 | 230 | 19.3 | 32.2 | 0.00 | 0.00 | 0.00 | 55 | |
| 20260901131828 | 17 | 220 | 16.1 | 0.0 | 0.00 | 0.00 | 0.00 | 59 | |
| 20260901121728 | 16 | 240 | 16.1 | 32.2 | 0.00 | 0.00 | 0.00 | 67 | |
| 20260901111828 | 13 | 250 | 19.3 | 33.8 | 0.00 | 0.00 | 0.00 | 76 | |
| 20260901102030 | 13 | 240 | 16.1 | 32.2 | 0.00 | 0.00 | 0.00 | 76 | |
| 20260901091728 | 12 | 260 | 14.5 | 32.2 | 0.00 | 0.00 | 0.00 | 82 | |
| 20260901081929 | 12 | 260 | 12.9 | 27.4 | 0.00 | 0.00 | 0.00 | 87 | |
| 20260901071929 | 12 | 240 | 20.9 | 35.4 | 0.00 | 0.00 | 0.00 | 87 | |
| 20260901061728 | 11 | 240 | 19.3 | 32.2 | 0.00 | 0.00 | 0.00 | 93 | |
| 20260901051827 | 11 | 230 | 19.3 | 0.0 | 0.00 | 0.00 | 0.00 | 93 |